Regional Weather Roundup
Issued by NWS Wilmington, NC

Home | Current Version | Previous Version | Text Only | Print | Product List | Glossary On
Versions: 1 2 3 4 5 6 7 8 9 10 11 12 13 14 15 16 17 18 19 20 21 22 23 24 25 26 27 28 29 30 31 32 33 34 35 36 37 38 39 40 41 42 43 44 45 46 47 48 49 50
000
ASUS42 KILM 191613
RWRILM
RWRILM
REGIONAL HOURLY WEATHER ROUNDUP
NATIONAL WEATHER SERVICE WILMINGTON NC
1200 PM EDT SUN APR 19 2015

NOTE: "FAIR" INDICATES FEW OR NO CLOUDS BELOW 12,000 FEET WITH NO
SIGNIFICANT WEATHER AND/OR OBSTRUCTIONS TO VISIBILITY.

...............WFO WILMINGTON COUNTY WARNING AREA...............

......COASTAL NC AND SC COUNTIES......

CITY           SKY/WX    TMP DP  RH WIND       PRES   REMARKS
WILMINGTON     CLOUDY    73  64  73 E10       29.98F
N MYRTLE BEACH CLOUDY    71  66  84 E10       29.96F
MYRTLE BEACH   PTSUNNY   72  64  78 E9        29.98F

......INLAND NC AND SC COUNTIES.......

CITY           SKY/WX    TMP DP  RH WIND       PRES   REMARKS
LUMBERTON      CLOUDY    73  66  78 SE10      29.95F
ELIZABETHTOWN  CLOUDY    72  67  84 E3        29.97F
WHITEVILLE     CLOUDY    74  67  78 E7        29.95F
FLORENCE       LGT RAIN  73  66  78 SE9       29.93F
DARLINGTON     CLOUDY    70  64  83 E8        29.95F

....................REST OF NORTH CAROLINA......................

.........EASTERN NC.........

CITY           SKY/WX    TMP DP  RH WIND       PRES   REMARKS
CAPE HATTERAS  CLOUDY    69  62  78 E15       30.05S
JACKSONVILLE   PTSUNNY   75  64  69 E14G20    30.00F
MOREHEAD CITY  CLOUDY    74  66  76 E10       30.02S
KENANSVILLE    PTSUNNY   74  64  70 E8G16     29.99F
NEW BERN       CLOUDY    74  62  66 E9        30.03F
ELIZABETH CITY CLOUDY    72  55  55 E15       30.07F

.........CENTRAL NC.........

CITY           SKY/WX    TMP DP  RH WIND       PRES   REMARKS
RALEIGH DURHAM CLOUDY    73  63  70 E16G23    29.99F
ROCKY MOUNT    PTSUNNY   71  62  73 NE9       30.02F
ROANOKE RAPIDS NOT AVBL
FAYETTEVILLE   PTSUNNY   75  65  70 E15G21    29.95F
HOFFMAN        LGT RAIN  71  65  81 SE13      29.99F

.........WESTERN NC.........

CITY           SKY/WX    TMP DP  RH WIND       PRES   REMARKS
CHARLOTTE      HVY RAIN  66  64  94 SE14      29.92F FOG
GREENSBORO     LGT RAIN  67  63  87 E10       29.96F
HICKORY        NOT AVBL
BOONE          NOT AVBL
ASHEVILLE      NOT AVBL

.....................REST OF SOUTH CAROLINA.....................

.........EASTERN SC.........

CITY           SKY/WX    TMP DP  RH WIND       PRES   REMARKS
CHARLESTON     LGT RAIN  73  69  87 E9        29.92S
BEAUFORT MCAS    N/A    N/A N/A N/A MISG      29.90R
HILTON HEAD    PTSUNNY   72  70  94 CALM      29.92R FOG

.........CENTRAL SC.........

CITY           SKY/WX    TMP DP  RH WIND       PRES   REMARKS
COLUMBIA       LGT RAIN  70  67  90 E10       29.89F
ORANGEBURG     LGT RAIN  69  67  93 VRB6      29.92R FOG
SUMTER SHAW    LGT RAIN  69  66  92 SE6       29.91S

.........WESTERN SC.........

CITY           SKY/WX    TMP DP  RH WIND       PRES   REMARKS
GREENVILLE     NOT AVBL
ROCK HILL      HVY RAIN  66  65  96 VRB3      29.92F FOG
ANDERSON       CLOUDY    69  67  93 S9        29.87R
CLEMSON        NOT AVBL
GREENWOOD      CLOUDY    70  68  93 SE7       29.89S


...................COASTAL AND OFFSHORE REPORTS..................

................LOCAL PIERS AND NC RESERVE................


STATION/POSITION TIME  SKY/WX   TEMP    WIND        PRES    VSBY
                                AIR SEA DIR/SP/G
                 (UTC)          (F)     (DEG/KT/KT) (MB)    (MI)
JOHNY MRCER PIER 1500            65 66   60/ 12/ 13 1015.3S
NC RESRV MASNBRO NOT AVBL
OCEAN CREST PIER 1602            71 67   70/ 13/ 14 1014.0F
SPRINGMAID  PIER 1500            66 66   30/  8/  9 1014.8F


................COASTAL AND OFFSHORE BUOYS................


STATION/POSITION TIME  SKY/WX   TEMP    WIND        PRES    VSBY
                                AIR SEA DIR/SP/G
                 (UTC)          (F)     (DEG/KT/KT) (MB)    (MI)
DIMNDSHOAL 41025 1550            74 75  110/ 16/ 19 1017.1F
WVE H/P(F/S)=  4/13 WND WVE H/P(F/S)=  2/ 6 SWL H/P/D(F/S/D)=  3/100/13

CAPE LOOKOUT     1600            69      70/  9/ 11 1016.1F
ONSLOW BAY 41036 NOT AVBL
5 WRITEBCH 41038 1500            67 65   70/ 12/ 16 1015.7R
MASONBORO  41110 1519               65                N/A
WVE H/P(F/S)=  3/ 8 WND WVE H/P(F/S)=  3/ 8 SWL H/P/D(F/S/D)=  2/100/13

WILM HARBR 41108 1511               63                N/A
WVE H/P(F/S)=  2/ 9 WND WVE H/P(F/S)=  2/ 9

27WRITEBCH 41037 1500            70 73  160/ 12/ 14   N/A
FRYING PAN 41013 1550            75 74  140/ 16/ 17 1014.9F
WVE H/P(F/S)=  3/ 8 WND WVE H/P(F/S)=  2/ 6 SWL H/P/D(F/S/D)=  2/120/ 8

SUNST NRSH 41024 1508            68     100/  8/ 12   N/A
CAPRS NRSH 41029 NOT AVBL
EDISTO     41004 1550            73 75  100/ 12/ 14 1013.2F
WVE H/P(F/S)=  3/ 8 WND WVE H/P(F/S)=  2/ 5 SWL H/P/D(F/S/D)=  3/ 8



..........OFFSHORE BUOYS BEYOND 100 NM OFFSHORE...........
.....IN A TRIANGLE---HAT TO BERMUDA TO BAHAMAS TO HAT.....


STATION/POSITION TIME  SKY/WX   TEMP    WIND        PRES    VSBY
                                AIR SEA DIR/SP/G
                 (UTC)          (F)     (DEG/KT/KT) (MB)    (MI)
150E HAT   41001 NOT AVBL
W BERMUDA  41048 1550            71 73   90/  6/  8 1016.1F
WVE H/P(F/S)=  4/13 WND WVE H/P(F/S)=  2/ 3 SWL H/P/D(F/S/D)=  5/13

ATLANTIC S 41049 1550            76 76  240/ 10/ 12 1016.9F
WVE H/P(F/S)=  5/13 WND WVE H/P(F/S)=  2/ 4 SWL H/P/D(F/S/D)=  5/ 30/13

E BAHAMAS  41046 1550            78 80  140/  8/ 10 1018.0F
WVE H/P(F/S)=  6/14 SWL H/P/D(F/S/D)=  7/ 30/14

NE BAHAMAS 41047 1550            77 77  250/ 10/ 10 1017.2S
WVE H/P(F/S)=  4/13 WND WVE H/P(F/S)=  2/ 4 SWL H/P/D(F/S/D)=  3/ 60/13

120E CANVRL41010 1520            78 79  140/ 10/ 12 1014.4F

END


USA.gov is the U.S. government's official web portal to all federal, state and local government web resources and services.